Weather History for KBHK - April, 2013

Change the Weather History Date:

Monday, April 1, 2013

  Actual Average Record
Temperature  
Mean Temperature 32 °F -  
Max Temperature 46 °F 54 °F 75 °F (2012)
Min Temperature 19 °F 28 °F -5 °F (2014)
Degree Days  
Heating Degree Days 33    
Moisture  
Dew Point 19 °F    
Average Humidity 66    
Maximum Humidity 82    
Minimum Humidity 38    
Precipitation  
Precipitation 0.00 in - - ()
Sea Level Pressure  
Sea Level Pressure 30.26 in    
Wind  
Wind Speed 3 mph (East)    
Max Wind Speed 8 mph    
Max Gust Speed -    
Visibility 10 miles    
Events      
Averages and records for this station are not official NWS values.
T = Trace of Precipitation, MM = Missing Value Source: NWS Daily Summary

Daily Weather History Graph

Daily Weather History Graph

Search for Another Location

Airport or City:

Trip Planner

Search our weather history database for the weather conditions in past years. The results will help you decide how hot, cold, wet, or windy it might be!

Date:

Astronomy

Apr. 01, 2013 Rise Set
Actual Time 6:36 AM MDT 7:26 PM MDT
Civil Twilight 6:05 AM MDT 7:56 PM MDT
Nautical Twilight 5:29 AM MDT 8:33 PM MDT
Astronomical Twilight 4:51 AM MDT 9:11 PM MDT
Moon 12:51 AM MDT (4/1) 10:10 AM MDT (4/1)
Length of Visible Light 13h 51m
Length of Day
12h 50m
Waning Gibbous, 66% of the Moon is Illuminated
Apr 1
Waning Gibbous
Apr 2
Last Quarter
Apr 10
New
Apr 18
First Quarter
Apr 25
Full

Hourly Weather History & Observations

Time (MDT) Temp. Windchill Dew Point Humidity Pressure Visibility Wind Dir Wind Speed Gust Speed Precip Events Conditions
12:51 AM 19.9 °F - 15.1 °F 81% 30.29 in 10.0 mi Calm Calm - N/A   Clear
1:51 AM 19.9 °F - 14.0 °F 78% 30.29 in 10.0 mi Calm Calm - N/A   Clear
2:51 AM 19.0 °F - 12.9 °F 77% 30.29 in 10.0 mi Calm Calm - N/A   Clear
3:51 AM 19.9 °F - 15.1 °F 81% 30.28 in 10.0 mi Calm Calm - N/A   Mostly Cloudy
4:51 AM 21.9 °F 17.2 °F 17.1 °F 82% 30.28 in 10.0 mi East 3.5 mph - N/A   Overcast
5:51 AM 21.0 °F 16.2 °F 16.0 °F 81% 30.29 in 10.0 mi ESE 3.5 mph - N/A   Mostly Cloudy
6:51 AM 19.0 °F 12.3 °F 14.0 °F 81% 30.30 in 9.0 mi ESE 4.6 mph - N/A   Clear
7:51 AM 23.0 °F 14.7 °F 18.0 °F 81% 30.30 in 10.0 mi ESE 6.9 mph - N/A   Clear
8:51 AM 27.0 °F 18.7 °F 19.9 °F 75% 30.29 in 10.0 mi SE 8.1 mph - N/A   Partly Cloudy
9:51 AM 30.9 °F 25.2 °F 23.0 °F 72% 30.29 in 10.0 mi SE 5.8 mph - N/A   Overcast
10:51 AM 35.1 °F 31.0 °F 21.9 °F 59% 30.28 in 10.0 mi ENE 4.6 mph - N/A   Mostly Cloudy
11:51 AM 39.0 °F 35.7 °F 21.0 °F 49% 30.28 in 10.0 mi NE 4.6 mph - N/A   Mostly Cloudy
12:51 PM 41.0 °F 37.1 °F 21.9 °F 47% 30.26 in 10.0 mi Variable 5.8 mph - N/A   Mostly Cloudy
1:51 PM 43.0 °F 38.2 °F 21.0 °F 42% 30.25 in 10.0 mi NNE 8.1 mph - N/A   Overcast
2:51 PM 45.0 °F 41.8 °F 21.0 °F 39% 30.24 in 10.0 mi NE 5.8 mph - N/A   Partly Cloudy
3:51 PM 43.0 °F 40.3 °F 21.0 °F 42% 30.22 in 10.0 mi ENE 4.6 mph - N/A   Mostly Cloudy
4:51 PM 44.1 °F 41.5 °F 19.9 °F 38% 30.22 in 10.0 mi ENE 4.6 mph - N/A   Scattered Clouds
5:51 PM 44.1 °F - 19.9 °F 38% 30.21 in 10.0 mi Calm Calm - N/A   Clear
8:51 PM 30.9 °F 26.2 °F 21.9 °F 69% 30.23 in 10.0 mi ESE 4.6 mph - N/A   Clear
9:51 PM 28.0 °F 20.8 °F 21.0 °F 75% 30.23 in 10.0 mi SE 6.9 mph - N/A   Clear
10:51 PM 26.1 °F 17.6 °F 19.9 °F 78% 30.22 in 10.0 mi SE 8.1 mph - N/A   Clear
11:51 PM 24.1 °F 17.0 °F 19.0 °F 81% 30.21 in 10.0 mi SE 5.8 mph - N/A   Clear